EW7507 Weather Reports


Display with metric or nautical units.
time (UTC)temp
F
wind
direction
speed
MPH
gust
MPH
rain 1hr
in
rain 24hr
in
rain mn
in
humidity
%
barometer
mb
20260505082545 42 41 1.0 7.0 0.00 0.00 0.00 55 978.5
20260505082050 42 59 4.0 10.0 0.00 0.00 0.00 55 978.4
20260505082042 42 73 4.0 10.0 0.00 0.00 0.00 55 978.5
20260505081042 42 68 3.0 6.0 0.00 0.00 0.00 55 978.4
20260505080543 42 85 1.0 4.0 0.00 0.00 0.00 54 978.4
20260505080042 42 117 0.0 0.0 0.00 0.00 0.00 54 978.3
20260505075543 42 117 0.0 3.0 0.00 0.00 0.00 54 978.3
20260505075041 42 117 0.0 3.0 0.00 0.00 0.00 54 978.3
20260505074543 42 117 2.0 3.0 0.00 0.00 0.00 53 978.3
20260505074042 42 116 0.0 3.0 0.00 0.00 0.00 52 978.2
20260505073542 42 116 0.0 3.0 0.00 0.00 0.00 52 978.2
20260505073042 42 114 0.0 0.0 0.00 0.00 0.00 51 978.0
20260505072542 42 114 0.0 0.0 0.00 0.00 0.00 51 978.0
20260505071542 42 113 0.0 5.0 0.00 0.00 0.00 50 978.1
20260505071040 43 135 3.0 7.0 0.00 0.00 0.00 50 977.9
20260505070542 43 165 4.0 9.0 0.00 0.00 0.00 49 977.8
20260505070048 43 103 3.0 5.0 0.00 0.00 0.00 50 977.9
20260505070041 43 164 4.0 9.0 0.00 0.00 0.00 49 977.8
20260505065040 43 124 2.0 4.0 0.00 0.00 0.00 51 977.9
20260505064541 43 121 1.0 4.0 0.00 0.00 0.00 50 977.9
20260505064039 43 114 0.0 2.0 0.00 0.00 0.00 52 977.9
20260505063707 43 111 1.0 2.0 0.00 0.00 0.00 49 977.8
20260505063548 43 111 0.0 3.0 0.00 0.00 0.00 50 977.7
20260505063541 43 113 0.0 3.0 0.00 0.00 0.00 50 977.9
20260505062040 44 110 0.0 4.0 0.00 0.00 0.00 49 977.8
20260505061548 44 102 2.0 5.0 0.00 0.00 0.00 48 977.8
20260505061540 44 110 1.0 5.0 0.00 0.00 0.00 48 977.7
20260505060541 44 107 0.0 0.0 0.00 0.00 0.00 46 977.7
20260505060045 45 80 0.0 5.0 0.00 0.00 0.00 45 977.5
20260505060038 45 94 0.0 4.0 0.00 0.00 0.00 45 977.6
20260505055038 45 104 3.0 7.0 0.00 0.00 0.00 44 977.6
20260505054704 45 113 2.0 5.0 0.00 0.00 0.00 43 977.5
20260505054548 45 99 1.0 7.0 0.00 0.00 0.00 43 977.6
20260505054541 45 106 3.0 7.0 0.00 0.00 0.00 44 977.6
20260505053038 46 72 2.0 4.0 0.00 0.00 0.00 43 977.5
20260505052539 46 72 2.0 4.0 0.00 0.00 0.00 41 977.4
20260505052045 47 71 0.0 1.0 0.00 0.00 0.00 40 977.4
20260505052037 46 71 2.0 4.0 0.00 0.00 0.00 41 977.5
20260505051703 47 71 0.0 1.0 0.00 0.00 0.00 40 977.5
20260505051203 47 71 0.0 1.0 0.00 0.00 0.00 41 977.4
20260505050705 47 71 0.0 3.0 0.00 0.00 0.00 39 977.3
20260505041537 49 78 0.0 5.0 0.00 0.00 0.00 35 976.9
20260505041043 49 63 4.0 5.0 0.00 0.00 0.00 34 976.6
20260505041036 49 56 2.0 5.0 0.00 0.00 0.00 34 976.7
20260505040035 49 78 2.0 6.0 0.00 0.00 0.00 34 976.6
20260505035545 50 41 1.0 7.0 0.00 0.00 0.00 33 976.4
20260505035538 50 72 2.0 6.0 0.00 0.00 0.00 33 976.4
20260505034537 50 75 2.0 7.0 0.00 0.00 0.00 33 976.4
20260505034036 50 63 3.0 9.0 0.00 0.00 0.00 32 976.4
20260505033537 50 65 4.0 9.0 0.00 0.00 0.00 32 976.4
20260505033034 50 56 5.0 10.0 0.00 0.00 0.00 32 976.3
20260505032536 50 69 4.0 10.0 0.00 0.00 0.00 32 976.2
20260505032042 51 86 3.0 12.0 0.00 0.00 0.00 31 976.1
20260505032035 51 113 4.0 11.0 0.00 0.00 0.00 31 976.2
20260505031040 51 63 7.0 13.0 0.00 0.00 0.00 30 976.0
20260505031034 51 92 5.0 13.0 0.00 0.00 0.00 30 976.0
20260505030033 51 78 2.0 11.0 0.00 0.00 0.00 30 975.9
20260505025537 52 63 4.0 13.0 0.00 0.00 0.00 29 975.8
20260505025033 52 83 5.0 13.0 0.00 0.00 0.00 28 975.8
20260505024536 52 68 4.0 13.0 0.00 0.00 0.00 28 975.7
20260505024033 53 35 6.0 13.0 0.00 0.00 0.00 28 975.7
20260505023541 53 55 4.0 20.0 0.00 0.00 0.00 26 975.6
20260505023533 53 62 5.0 20.0 0.00 0.00 0.00 27 975.6
20260505022534 53 1 6.0 17.0 0.00 0.00 0.00 25 975.5
20260505022034 53 71 3.0 12.0 0.00 0.00 0.00 25 975.5
20260505021539 53 0 4.0 15.0 0.00 0.00 0.00 25 975.4
20260505021033 54 44 3.0 16.0 0.00 0.00 0.00 25 975.3
20260505020538 54 0 7.0 16.0 0.00 0.00 0.00 25 975.4
20260505020040 54 6 9.0 16.0 0.00 0.00 0.00 23 975.4
20260505020032 54 99 5.0 16.0 0.00 0.00 0.00 25 975.3
20260505015032 55 51 6.0 16.0 0.00 0.00 0.00 23 975.5
20260505014543 55 0 8.0 21.0 0.00 0.00 0.00 23 975.3
20260505014039 55 69 7.0 16.0 0.00 0.00 0.00 22 975.3
20260505014031 55 0 13.0 21.0 0.00 0.00 0.00 22 975.3
20260505013033 56 6 9.0 16.0 0.00 0.00 0.00 23 975.4
20260505012544 56 54 6.0 15.0 0.00 0.00 0.00 22 975.3
20260505012033 56 11 6.0 16.0 0.00 0.00 0.00 22 975.2
20260505011537 56 0 10.0 16.0 0.00 0.00 0.00 22 975.4
20260505011032 56 0 7.0 16.0 0.00 0.00 0.00 22 975.2
20260505010542 56 75 3.0 19.0 0.00 0.00 0.00 22 975.2
20260505010032 56 4 7.0 21.0 0.00 0.00 0.00 22 975.2
20260505005539 56 7 13.0 21.0 0.00 0.00 0.00 21 975.2
20260505005031 56 65 12.0 24.0 0.00 0.00 0.00 21 975.2
20260505004539 57 1 11.0 24.0 0.00 0.00 0.00 21 975.4
20260505004030 57 357 12.0 21.0 0.00 0.00 0.00 21 975.3
20260505003538 57 85 4.0 11.0 0.00 0.00 0.00 24 975.2
20260505003030 57 0 7.0 17.0 0.00 0.00 0.00 21 975.3
20260505002533 58 0 6.0 17.0 0.00 0.00 0.00 21 975.4
20260505002030 58 0 7.0 17.0 0.00 0.00 0.00 21 975.3
20260505001546 59 357 12.0 19.0 0.00 0.00 0.00 20 975.3
20260505001538 58 0 8.0 19.0 0.00 0.00 0.00 21 975.2
20260505000541 59 18 8.0 17.0 0.00 0.00 0.00 20 975.3
20260505000533 59 7 9.0 15.0 0.00 0.00 0.00 20 975.2
20260504235535 60 4 11.0 17.0 0.00 0.00 0.00 19 975.2
20260504235029 60 0 9.0 19.0 0.00 0.00 0.00 20 975.1
20260504234532 59 18 10.0 19.0 0.00 0.00 0.00 19 975.1
20260504234029 59 323 6.0 21.0 0.00 0.00 0.00 19 975.1
20260504233530 60 0 11.0 27.0 0.00 0.00 0.00 18 975.2
20260504233035 60 0 15.0 23.0 0.00 0.00 0.00 18 975.1
20260504233029 60 23 14.0 27.0 0.00 0.00 0.00 19 975.1
20260504232029 60 78 13.0 21.0 0.00 0.00 0.00 18 975.0
20260504231529 60 340 10.0 24.0 0.00 0.00 0.00 19 975.2
20260504231028 60 334 11.0 24.0 0.00 0.00 0.00 20 975.1
20260504230537 60 13 10.0 22.0 0.00 0.00 0.00 19 975.0
20260504230530 60 30 11.0 22.0 0.00 0.00 0.00 19 975.1
20260504230153 61 6 12.0 19.0 0.00 0.00 0.00 19 975.1
20260504225029 61 341 7.0 23.0 0.00 0.00 0.00 20 975.1
20260504224530 61 354 10.0 23.0 0.00 0.00 0.00 19 975.0
20260504224028 60 8 10.0 20.0 0.00 0.00 0.00 20 975.0
20260504223528 60 350 9.0 20.0 0.00 0.00 0.00 20 975.0
20260504223027 61 48 11.0 19.0 0.00 0.00 0.00 19 975.1
20260504222527 61 0 12.0 22.0 0.00 0.00 0.00 21 975.1
20260504222026 61 18 14.0 22.0 0.00 0.00 0.00 21 975.2
20260504221529 60 337 12.0 19.0 0.00 0.00 0.00 22 975.0
20260504221153 60 52 9.0 19.0 0.00 0.00 0.00 21 975.1
20260504220028 60 3 11.0 19.0 0.00 0.00 0.00 21 975.1
20260504215535 60 23 12.0 19.0 0.00 0.00 0.00 21 975.2
20260504215527 60 0 10.0 19.0 0.00 0.00 0.00 22 975.0
20260504214528 60 0 10.0 16.0 0.00 0.00 0.00 23 975.3
20260504214026 59 0 9.0 19.0 0.00 0.00 0.00 23 975.2
20260504213529 58 3 8.0 21.0 0.00 0.00 0.00 23 975.4
20260504213026 59 289 6.0 21.0 0.00 0.00 0.00 23 975.5
20260504212536 58 0 4.0 19.0 0.00 0.00 0.00 23 975.5
20260504212528 59 333 10.0 17.0 0.00 0.00 0.00 23 975.6
20260504211527 59 13 9.0 20.0 0.00 0.00 0.00 21 975.6
20260504211025 59 8 15.0 20.0 0.00 0.00 0.00 24 975.7
20260504210527 59 347 9.0 19.0 0.00 0.00 0.00 25 975.5
20260504210155 59 0 6.0 17.0 0.00 0.00 0.00 29 975.5
20260504210033 59 0 11.0 19.0 0.00 0.00 0.00 27 975.6
20260504210025 59 344 9.0 19.0 0.00 0.00 0.00 26 975.5
20260504204526 59 337 6.0 17.0 0.00 0.00 0.00 27 975.5
20260504204026 59 3 9.0 16.0 0.00 0.00 0.00 29 975.7
20260504203526 59 0 9.0 19.0 0.00 0.00 0.00 28 975.8
20260504203024 59 4 9.0 20.0 0.00 0.00 0.00 29 975.8
20260504202525 59 343 11.0 21.0 0.00 0.00 0.00 29 975.8
20260504202025 58 330 13.0 21.0 0.00 0.00 0.00 29 975.8
20260504201526 58 348 13.0 21.0 0.00 0.00 0.00 29 975.8
20260504201024 58 24 10.0 21.0 0.00 0.00 0.00 29 975.9
20260504200526 58 20 11.0 21.0 0.00 0.00 0.00 29 975.8
20260504200023 58 18 10.0 19.0 0.00 0.00 0.00 29 976.0
20260504195527 58 0 11.0 21.0 0.00 0.00 0.00 30 975.8
20260504195023 57 0 9.0 21.0 0.00 0.00 0.00 31 975.9
20260504194524 56 334 10.0 21.0 0.00 0.00 0.00 31 976.0
20260504194024 56 18 12.0 21.0 0.00 0.00 0.00 31 976.2
20260504193525 56 358 11.0 19.0 0.00 0.00 0.00 31 976.0
20260504193023 56 338 12.0 19.0 0.00 0.00 0.00 30 976.2
20260504192525 56 0 11.0 17.0 0.00 0.00 0.00 32 976.1
20260504192024 55 0 10.0 20.0 0.00 0.00 0.00 34 976.2
20260504191523 55 334 13.0 20.0 0.00 0.00 0.00 33 976.3
20260504191030 54 0 6.0 18.0 0.00 0.00 0.00 37 976.3
20260504191022 55 6 8.0 18.0 0.00 0.00 0.00 35 976.3
20260504190030 54 0 7.0 16.0 0.00 0.00 0.00 38 976.5
20260504190022 54 25 9.0 16.0 0.00 0.00 0.00 35 976.5
20260504185021 54 354 5.0 17.0 0.00 0.00 0.00 36 976.6
20260504184526 54 354 9.0 18.0 0.00 0.00 0.00 35 976.7
20260504184022 54 348 12.0 20.0 0.00 0.00 0.00 35 976.6
20260504183521 54 0 11.0 20.0 0.00 0.00 0.00 35 976.6
20260504183021 53 0 7.0 19.0 0.00 0.00 0.00 37 976.5
20260504182530 53 23 8.0 18.0 0.00 0.00 0.00 36 976.7
20260504182521 53 0 11.0 19.0 0.00 0.00 0.00 35 976.6
20260504181529 53 340 11.0 19.0 0.00 0.00 0.00 35 976.6
20260504181521 53 347 9.0 19.0 0.00 0.00 0.00 36 976.6
20260504180523 53 337 10.0 20.0 0.00 0.00 0.00 35 976.7
20260504180031 54 0 11.0 17.0 0.00 0.00 0.00 34 976.6
20260504180023 54 324 10.0 20.0 0.00 0.00 0.00 35 976.6
20260504175020 54 338 9.0 18.0 0.00 0.00 0.00 34 976.5
20260504174522 54 348 8.0 18.0 0.00 0.00 0.00 36 976.4
20260504174020 53 348 8.0 14.0 0.00 0.00 0.00 36 976.5
20260504173529 53 344 7.0 13.0 0.00 0.00 0.00 38 976.7
20260504173521 53 336 9.0 13.0 0.00 0.00 0.00 36 976.5
20260504172524 53 0 8.0 15.0 0.00 0.00 0.00 37 976.5
20260504172021 52 0 7.0 15.0 0.00 0.00 0.00 37 976.5
20260504171523 52 18 5.0 15.0 0.00 0.00 0.00 39 976.5
20260504171020 52 0 10.0 15.0 0.00 0.00 0.00 38 976.6
20260504170522 52 358 9.0 15.0 0.00 0.00 0.00 39 976.5
20260504151017 50 30 4.0 12.0 0.00 0.00 0.00 44 976.2
20260504150519 50 21 7.0 12.0 0.00 0.00 0.00 44 976.2
20260504141015 49 235 2.0 4.0 0.00 0.00 0.00 71 975.7
20260504140519 49 235 2.0 3.0 0.00 0.00 0.00 72 975.8
20260504130520 47 235 0.0 1.0 0.00 0.00 0.00 72 975.6
20260504110512 48 319 0.0 0.0 0.00 0.00 0.00 71 975.6
20260504100511 49 18 0.0 3.0 0.00 0.00 0.00 66 975.7